DW8947 Weather Reports


Display with metric or nautical units.
time (UTC)temp
F
wind
direction
speed
MPH
gust
MPH
rain 1hr
in
rain 24hr
in
rain mn
in
humidity
%
barometer
mb
20260504060203 68 75 0.0 2.0 0.00 0.00 0.00 44 1007.3
20260504050703 68 98 0.0 1.0 0.00 0.00 0.00 45 1007.4
20260504045704 68 170 1.0 2.0 0.00 0.00 0.00 47 1007.4
20260504045204 68 48 0.0 2.0 0.00 0.00 0.00 45 1007.4
20260504044704 68 48 0.0 2.0 0.00 0.00 0.00 46 1007.4
20260504043704 68 6 0.0 2.0 0.00 0.00 0.00 46 1007.5
20260504042704 68 34 0.0 2.0 0.00 0.00 0.00 48 1007.4
20260504042204 68 34 0.0 2.0 0.00 0.00 0.00 45 1007.5
20260504041204 69 73 0.0 2.0 0.00 0.00 0.00 46 1007.4
20260504040703 69 94 1.0 2.0 0.00 0.00 0.00 44 1007.3
20260504035204 69 96 0.0 2.0 0.00 0.00 0.00 45 1007.2
20260504034204 69 58 0.0 1.0 0.00 0.00 0.00 47 1007.2
20260504032204 70 117 0.0 2.0 0.00 0.00 0.00 47 1007.2
20260504031704 71 129 0.0 2.0 0.00 0.00 0.00 47 1007.3
20260504031203 71 222 0.0 2.0 0.00 0.00 0.00 45 1007.3
20260504025204 72 96 0.0 1.0 0.00 0.00 0.00 45 1007.3
20260504023704 72 166 0.0 2.0 0.00 0.00 0.00 46 1007.2
20260504023204 72 70 1.0 2.0 0.00 0.00 0.00 45 1007.3
20260504022703 73 50 0.0 2.0 0.00 0.00 0.00 45 1007.3
20260504022203 73 50 0.0 1.0 0.00 0.00 0.00 44 1007.3
20260504021703 73 50 0.0 2.0 0.00 0.00 0.00 43 1007.4
20260504021204 74 134 0.0 2.0 0.00 0.00 0.00 41 1007.4
20260504020203 74 10 0.0 2.0 0.00 0.00 0.00 42 1007.4
20260504015203 75 344 1.0 3.0 0.00 0.00 0.00 36 1007.5
20260504014204 75 325 0.0 2.0 0.00 0.00 0.00 38 1007.6
20260504013204 76 311 1.0 2.0 0.00 0.00 0.00 35 1007.6
20260504012703 76 331 1.0 2.0 0.00 0.00 0.00 37 1007.6
20260504012204 76 336 1.0 3.0 0.00 0.00 0.00 38 1007.7
20260504011704 76 52 1.0 2.0 0.00 0.00 0.00 38 1007.8
20260504010704 77 337 1.0 2.0 0.00 0.00 0.00 42 1007.8
20260504010204 77 96 1.0 3.0 0.00 0.00 0.00 36 1007.9
20260504005203 77 82 1.0 3.0 0.00 0.00 0.00 39 1007.9
20260504004703 77 103 1.0 5.0 0.00 0.00 0.00 40 1008.0
20260504004203 77 39 1.0 3.0 0.00 0.00 0.00 37 1008.0
20260504003703 77 319 1.0 2.0 0.00 0.00 0.00 36 1008.1
20260504002704 78 315 1.0 2.0 0.00 0.00 0.00 35 1008.1
20260504001704 78 302 0.0 2.0 0.00 0.00 0.00 40 1008.1
20260504001204 77 303 1.0 3.0 0.00 0.00 0.00 35 1008.2
20260504000704 77 36 1.0 2.0 0.00 0.00 0.00 37 1008.3
20260504000204 77 281 0.0 2.0 0.00 0.00 0.00 38 1008.3
20260503234703 77 329 0.0 1.0 0.00 0.00 0.00 39 1008.4
20260503233203 78 323 1.0 2.0 0.00 0.00 0.00 40 1008.6
20260503231204 79 284 1.0 3.0 0.00 0.00 0.00 38 1008.9
20260503230203 79 325 1.0 3.0 0.00 0.00 0.00 39 1008.9
20260503225704 79 7 0.0 2.0 0.00 0.00 0.00 40 1009.0
20260503225204 79 10 1.0 3.0 0.00 0.00 0.00 38 1009.2
20260503224204 80 295 1.0 3.0 0.00 0.00 0.00 36 1009.2
20260503223704 80 0 1.0 2.0 0.00 0.00 0.00 37 1009.3
20260503223204 79 173 1.0 3.0 0.00 0.00 0.00 35 1009.4
20260503222704 79 234 0.0 2.0 0.00 0.00 0.00 38 1009.5
20260503221704 79 334 1.0 3.0 0.00 0.00 0.00 35 1009.6
20260503221203 79 302 1.0 2.0 0.00 0.00 0.00 35 1009.7
20260503220203 79 307 1.0 3.0 0.00 0.00 0.00 35 1009.8
20260503215704 79 328 1.0 3.0 0.00 0.00 0.00 36 1009.8
20260503215203 78 216 1.0 7.0 0.00 0.00 0.00 36 1009.8
20260503214704 78 338 2.0 3.0 0.00 0.00 0.00 38 1010.0
20260503213704 78 356 0.0 2.0 0.00 0.00 0.00 38 1010.1
20260503213203 78 291 1.0 2.0 0.00 0.00 0.00 40 1010.2
20260503212704 78 4 1.0 3.0 0.00 0.00 0.00 39 1010.2
20260503212204 78 300 1.0 2.0 0.00 0.00 0.00 40 1010.2
20260503211204 78 335 1.0 2.0 0.00 0.00 0.00 43 1010.3
20260503210203 78 313 1.0 2.0 0.00 0.00 0.00 44 1010.4
20260503205204 78 237 1.0 2.0 0.00 0.00 0.00 42 1010.4
20260503204704 78 92 1.0 2.0 0.00 0.00 0.00 42 1010.5
20260503203703 77 327 1.0 2.0 0.00 0.00 0.00 41 1010.6
20260503203203 77 290 1.0 3.0 0.00 0.00 0.00 40 1010.6
20260503202204 77 332 0.0 2.0 0.00 0.00 0.00 40 1010.7
20260503201703 77 348 1.0 3.0 0.00 0.00 0.00 41 1010.8
20260503201203 77 299 1.0 2.0 0.00 0.00 0.00 42 1010.8
20260503200703 77 273 1.0 2.0 0.00 0.00 0.00 41 1011.0
20260503194706 76 335 1.0 3.0 0.00 0.00 0.00 43 1011.2
20260503194204 76 320 0.0 2.0 0.00 0.00 0.00 44 1011.2
20260503193704 76 316 1.0 1.0 0.00 0.00 0.00 44 1011.3
20260503193204 76 325 0.0 3.0 0.00 0.00 0.00 45 1011.3
20260503192704 76 34 1.0 2.0 0.00 0.00 0.00 46 1011.4
20260503191204 75 318 0.0 2.0 0.00 0.00 0.00 46 1011.4
20260503190704 74 312 0.0 1.0 0.00 0.00 0.00 48 1011.5
20260503185204 73 315 0.0 2.0 0.00 0.00 0.00 49 1011.6
20260503184704 72 315 0.0 2.0 0.00 0.00 0.00 49 1011.7
20260503183704 72 173 1.0 3.0 0.00 0.00 0.00 50 1011.8
20260503183204 72 300 1.0 3.0 0.00 0.00 0.00 49 1011.9
20260503181703 71 308 1.0 3.0 0.00 0.00 0.00 51 1012.0
20260503181204 71 281 1.0 3.0 0.00 0.00 0.00 54 1012.0
20260503180204 70 273 2.0 3.0 0.00 0.00 0.00 53 1012.0
20260503175704 70 240 0.0 3.0 0.00 0.00 0.00 55 1012.0
20260503175204 69 311 1.0 3.0 0.00 0.00 0.00 55 1012.1
20260503174704 69 316 1.0 3.0 0.00 0.00 0.00 56 1012.2
20260503174204 69 193 1.0 2.0 0.00 0.00 0.00 55 1012.2
20260503173704 68 35 1.0 3.0 0.00 0.00 0.00 56 1012.2
20260503173204 68 15 1.0 2.0 0.00 0.00 0.00 56 1012.3
20260503172705 67 312 1.0 3.0 0.00 0.00 0.00 58 1012.4
20260503170205 65 288 0.0 2.0 0.00 0.00 0.00 65 1012.4
20260503131204 59 22 0.0 2.0 0.00 0.00 0.00 68 1012.1
20260503110704 60 265 0.0 2.0 0.00 0.00 0.00 64 1012.4
20260503110204 60 265 0.0 2.0 0.00 0.00 0.00 64 1012.3
20260503100204 57 17 0.0 2.0 0.00 0.00 0.00 75 1012.7
20260503090203 59 17 0.0 2.0 0.00 0.00 0.00 66 1012.5
20260503081204 63 121 0.0 2.0 0.00 0.00 0.00 56 1012.5
20260503080704 63 121 0.0 2.0 0.00 0.00 0.00 58 1012.4
20260503071204 63 39 0.0 2.0 0.00 0.00 0.00 58 1012.2